STARLINK-32759, 62751

Orbit data source: Space-Track

STARLINK-32759, 62751 is a payload satellite owned by SpaceX/Seattle (US) in LEO that was launched on Tue, 21 Jan 2025 UTC via an FALCON 9 launch vehicle from the Air Force Eastern Test Range (AFETR). Payload-class satellites include a variety of spacecraft equipped with specific instruments for various scientific and technological missions. These include communications satellites like Starlink; space stations such as the ISS; scientific satellites like the Hubble; Earth observation satellites from companies like Planet Labs, Umbra, and HawkEye 360; GPS; miniature CubeSats for education and research; and military/defense satellites.

Loading next visibility...
Identifier
62751, 2025-014S
Orbit
LEO
Country
Flag of USUS
Related business
Manufacturer
SpaceX/Seattle
Mission
Operational Commercial Communications
Bus & Motor
STARLINK V2M, Unknown motor
Mass
730 kg wet, ~700 kg dry
Launch date (UTC)
2025-01-21 (11 months ago)
Launch vehicle
FALCON 9
Launch site
Air Force Eastern Test Range (AFETR)
Object type
Payload
Rocket body
Debris
Shape & HBR
Box + 2 Pan, 17.7 m
Radar Cross Section
33.884 m², Large (>1 m²)

Expand to show TLE details & history
Last TLE update: 19 hours ago

TLE from 19 hours ago
0 STARLINK-32759
1 62751U 25014S   25348.81320411  .00032155  00000-0  11729-2 0  9993
2 62751  42.9980 277.4502 0000850 247.0456 113.0306 15.27581200 50238
Epoch: 2025-12-14T19:31Z
TLE epoch observation values (Epoch: 2025-12-14T19:31:00.835Z)
Latitude
Longitude
-99.02402°
Altitude
483.049 km
Speed
7.626 km/s
True Right ascension
18h 29m 48s
True Declination
0° 00' 00"
Sunlit
Object was in daylight at epoch
Visualization orbit readout
Latitude
Unknown
Longitude
Unknown
Altitude
Unknown
Speed
Unknown
Apparent Right ascension
Unknown
Apparent Declination
Unknown
Sunlit
N/A
Visualization observer readout
Local Sidereal Time
13:19:54
Azimuth
Unknown
Elevation
Unknown
Doppler factor
Unknown
Orbital elements
Apogee altitude
485.574 km
Perigee altitude
484.408 km
Semi-major axis
6,863.128 km
Eccentricity
0.00009
Inclination
42.998°
RAAN
277.4502°
Arg. of periapsis
247.0456°
True anomaly
113.03956°
Mean anomaly
113.0306°
Eccentric anomaly
113.03508°
Mean motion
3.81733 °/min
Orbital period
94.31 mins
BSTAR
0.0011729
Loading maneuver chart data...
Computing Atmospheric mass density...
Loading historical data...
Loading historical data...
Loading historical data...
Loading historical data...
Loading historical data...
Loading historical data...
Loading historical data...

Documentation

Showing up to 5 results
|